Time,TemperatureF,DewpointF,PressureIn,WindDirection,WindDirectionDegrees,WindSpeedMPH,WindSpeedGustMPH,Humidity,HourlyPrecipIn,Conditions,Clouds,dailyrainin,SoftwareType,DateUTC
2013-03-09 00:00:00,22.0,9.0,-100.00,WNW,283,18.0,20.0,57,-99.99,,,-99.99,,2013-03-09 08:00:00,
2013-03-09 01:00:00,22.0,2.0,-100.00,WNW,287,18.0,20.0,42,-99.99,,,-99.99,,2013-03-09 09:00:00,
2013-03-09 02:00:00,23.0,-10.0,-100.00,West,280,21.0,23.0,22,-99.99,,,-99.99,,2013-03-09 10:00:00,
2013-03-09 03:00:00,23.0,-12.0,-100.00,West,277,21.0,25.0,20,-99.99,,,-99.99,,2013-03-09 11:00:00,
2013-03-09 03:52:00,23.0,-12.0,-100.00,West,277,21.0,25.0,20,-99.99,,,-99.99,,2013-03-09 11:52:00,
2013-03-09 04:00:00,23.0,-12.0,-100.00,West,266,22.0,27.0,20,-99.99,,,-99.99,,2013-03-09 12:00:00,
2013-03-09 05:00:00,23.0,-12.0,-100.00,West,279,22.0,25.0,20,-99.99,,,-99.99,,2013-03-09 13:00:00,
2013-03-09 05:52:00,23.0,-12.0,-100.00,West,279,22.0,25.0,20,-99.99,,,-99.99,,2013-03-09 13:52:00,
2013-03-09 07:00:00,24.0,-16.0,-100.00,West,281,20.0,23.0,16,-99.99,,,-99.99,,2013-03-09 15:00:00,
2013-03-09 08:00:00,23.0,-11.0,-100.00,WNW,285,20.0,23.0,21,-99.99,,,-99.99,,2013-03-09 16:00:00,
2013-03-09 09:00:00,24.0,-4.0,-100.00,West,270,20.0,22.0,29,-99.99,,,-99.99,,2013-03-09 17:00:00,
2013-03-09 10:00:00,24.0,0.0,-100.00,West,274,17.0,22.0,35,-99.99,,,-99.99,,2013-03-09 18:00:00,
2013-03-09 11:00:00,28.0,3.0,-100.00,West,275,15.0,20.0,34,-99.99,,,-99.99,,2013-03-09 19:00:00,
2013-03-09 13:00:00,31.0,15.0,-100.00,West,272,13.0,20.0,51,-99.99,,,-99.99,,2013-03-09 21:00:00,
2013-03-09 13:52:00,31.0,15.0,-100.00,West,272,13.0,20.0,51,-99.99,,,-99.99,,2013-03-09 21:52:00,
2013-03-09 14:00:00,31.0,17.0,-100.00,West,275,13.0,20.0,56,-99.99,,,-99.99,,2013-03-09 22:00:00,
2013-03-09 15:00:00,33.0,17.0,-100.00,West,261,13.0,23.0,52,-99.99,,,-99.99,,2013-03-09 23:00:00,
2013-03-09 15:52:00,33.0,17.0,-100.00,West,261,13.0,23.0,52,-99.99,,,-99.99,,2013-03-09 23:52:00,
2013-03-09 16:00:00,34.0,19.0,-100.00,West,274,14.0,20.0,54,-99.99,,,-99.99,,2013-03-10 00:00:00,
2013-03-09 17:00:00,33.0,20.0,-100.00,SW,226,12.0,14.0,58,-99.99,,,-99.99,,2013-03-10 01:00:00,
2013-03-09 18:00:00,26.0,24.0,-100.00,WSW,258,13.0,20.0,91,-99.99,,,-99.99,,2013-03-10 02:00:00,
2013-03-09 18:52:00,26.0,24.0,-100.00,WSW,258,13.0,20.0,91,-99.99,,,-99.99,,2013-03-10 02:52:00,
2013-03-09 19:00:00,26.0,16.0,-100.00,West,267,20.0,28.0,64,-99.99,,,-99.99,,2013-03-10 03:00:00,
2013-03-09 20:00:00,26.0,8.0,-100.00,West,273,20.0,25.0,46,-99.99,,,-99.99,,2013-03-10 04:00:00,
2013-03-09 20:52:00,26.0,8.0,-100.00,West,273,20.0,25.0,46,-99.99,,,-99.99,,2013-03-10 04:52:00,
2013-03-09 21:00:00,27.0,5.0,-100.00,West,263,23.0,32.0,38,-99.99,,,-99.99,,2013-03-10 05:00:00,
2013-03-09 22:00:00,27.0,-1.0,-100.00,West,273,22.0,32.0,29,-99.99,,,-99.99,,2013-03-10 06:00:00,
2013-03-09 22:52:00,27.0,-1.0,-100.00,West,273,22.0,32.0,29,-99.99,,,-99.99,,2013-03-10 06:52:00,
2013-03-09 23:00:00,28.0,1.0,-100.00,West,272,17.0,25.0,31,-99.99,,,-99.99,,2013-03-10 07:00:00,
2013-03-09 23:52:00,28.0,1.0,-100.00,West,272,17.0,25.0,31,-99.99,,,-99.99,,2013-03-10 07:52:00,